Location: Newark
(45.2672°N, 1.7656°E)
Time: 05:17:32
(UTC+00:00)

OTV 5 (USA 277) - Visible Passes

Search period start: 24 October 2019 00:00
Search period end: 03 November 2019 00:00
Orbit: 310 x 324 km, 54.5° (Epoch: 17 October)

Date Brightness Start Highest point End Pass type
(mag) Time Alt. Az. Time Alt. Az. Time Alt. Az.
27 Oct ? 18:23:43 10° S 18:24:02 12° S 18:24:02 12° S visible
28 Oct ? 18:37:28 10° SW 18:38:41 22° SSW 18:38:41 22° SSW visible
29 Oct ? 17:19:33 10° SSE 17:20:42 12° SE 17:21:50 10° ESE visible
29 Oct ? 18:51:56 10° WSW 18:53:11 23° WSW 18:53:11 23° WSW visible
30 Oct ? 17:32:34 10° SSW 17:35:00 29° SE 17:36:39 16° E visible
30 Oct ? 19:06:50 10° W 19:07:33 15° W 19:07:33 15° W visible
31 Oct ? 17:46:44 10° SW 17:49:27 80° SE 17:50:56 24° ENE visible
01 Nov ? 18:01:26 10° WSW 18:04:03 41° NNW 18:05:08 27° NNE visible
02 Nov ? 18:16:30 10° WNW 18:18:46 23° NNW 18:19:15 22° N visible
